Vertical_Velocity
-5 -2 -1 -0 1 -1 -0 -0 0 -1 -1 -0 0 -1 -0 -1 -2 -1 -3 -0 -0 0 1 -0 -1 -1 -3 -2 0 -0 -6 -0 -2 -1 -1 0 -1 0 0 -1 -2 2 2 6 5
-2 1 0 0 -1 -0 1 -0 -0 -1 -1 0 -0 2 -1 1 -0 -0 1 -1 -1 -3 -2 -0 -2 -0 -3 -1 -0 -5 -3 -4 -1 0 0 0 -1 0 -1 -3 -5 -7 3 5 5
0 -0 -1 1 1 -1 -1 -1 0 0 -0 -0 0 -0 1 -2 1 0 -1 -0 2 -0 -0 -0 -1 -1 -0 1 0 1 -4 -2 -1 3 0 -0 -1 0 -1 -2 -0 -2 -9 2 -2
-2 0 1 -0 -2 -3 -2 -0 -1 -0 -2 -2 -0 -1 1 0 -4 -1 -3 1 -2 2 -0 -1 -1 -0 0 0 1 -1 -0 0 2 -0 -0 -1 -0 -0 -0 -3 -1 4 4 1 2
-1 0 -1 -3 -2 -1 -1 -1 -2 -2 -1 -1 -4 -0 0 -0 -1 0 -3 -2 -2 -2 4 0 0 -0 -1 0 -1 1 -1 1 1 -2 1 2 -0 0 -7 8 7 9 4 6 0
-0 -4 -3 -2 -1 -1 0 -0 -1 -1 -1 1 1 0 -0 -1 -4 -1 -1 -1 -2 -2 -1 2 2 1 1 1 -1 1 -1 -2 -2 -3 0 2 0 -4 8 7 -4 2 1 1 0
-4 -2 -1 -1 1 -0 -1 0 1 -1 0 -0 -1 -1 -1 -2 -1 -1 -0 -1 -2 -3 -2 -0 0 1 0 -0 1 1 -2 -3 -2 -0 -1 -0 1 0 4 -0 -2 1 2 3 1
-1 0 0 0 -2 -2 1 -1 -1 -1 -1 -1 1 -2 0 0 1 -2 -1 2 2 1 -1 -1 -1 -0 -1 2 -3 -0 -2 -1 -3 1 1 -3 1 3 4 -3 2 -1 1 1 -0
-1 -2 -1 -2 -3 -3 -1 -2 0 -1 -1 -0 1 -0 0 -1 1 0 -2 0 -0 -1 -0 -0 -2 -1 1 -3 -4 -2 -1 1 0 0 -1 -6 -2 3 4 -2 -2 -0 -0 1 1
-2 -1 -0 -1 -2 -1 -2 -3 -1 -3 2 -2 1 -1 0 -1 -3 -3 -2 -2 -0 -1 -0 1 1 -1 -1 -2 -5 -3 1 0 -1 -1 -2 1 -3 -2 4 -4 2 1 -1 -4 -0
-2 -4 0 -2 -1 -3 0 -3 -2 -2 2 -1 2 1 -3 0 -4 -1 -2 1 3 3 -1 1 -3 -2 -4 -1 -1 -1 0 -0 -2 1 -1 -0 -0 -2 3 -6 -3 -3 -6 -6 -7
-2 -4 0 4 -1 -3 -4 -5 -2 1 -6 1 1 -1 -1 -1 -1 0 -2 1 1 -1 1 -6 -2 -3 -1 0 -1 0 -0 -2 -2 -0 0 -1 -6 1 2 4 1 0 -0 -2 -9
-4 -0 2 1 -5 -1 -6 -3 0 -2 -0 0 1 -0 0 1 -0 -2 -2 0 -0 -0 0 -3 -1 0 0 1 1 -0 -1 -0 -2 -1 -1 0 -3 2 5 -1 1 4 9 6 6
-1 -2 2 -3 -7 -2 -2 -1 -0 0 -5 -4 -0 -1 1 -0 -2 -0 -0 -0 -1 -2 0 -1 -1 -0 0 0 -2 0 -0 -1 -0 -4 -4 -4 -9 0 1 2 -3 -2 -8 -5 -8
-1 0 -3 -4 -3 -1 -0 -1 -0 -1 -8 -2 -0 2 1 -3 -1 -1 -0 -1 -0 0 -6 -9 -0 1 1 -2 -1 -3 -1 -0 -0 -1 -4 1 -1 -4 -1 -2 -1 1 1 1 -2
-1 -2 -1 -3 -3 -3 0 0 -1 -19 -16 -1 0 -0 -2 0 -0 -0 -1 -2 1 -1 -1 -2 0 -0 -4 0 -0 -0 -2 -2 -1 -2 -4 -5 -2 -4 -2 -2 -2 -3 -2 -0 -3
-0 -1 -2 -2 -2 -3 -2 -3 -16 -8 -7 -1 -0 -0 0 -1 -0 0 -0 -2 -4 -6 -2 -3 -1 -1 -2 -1 -2 -4 -5 -5 -9 -7 -6 -0 2 -9 -1 -1 0 1 -2 -2 0
-1 -3 -2 -2 -1 -2 -3 -12 -2 -4 0 0 -0 0 -0 -1 -0 0 0 -1 -2 -2 -1 -2 -10 1 0 -4 -7 -1 -8 -8 -5 -2 -2 -1 -3 -14 -2 -1 -1 1 0 2 -2
-3 -3 -1 -1 -2 -3 -3 -4 -7 0 1 -0 -2 1 -1 0 1 0 0 -1 -3 -3 -8 -2 -3 -2 -1 0 -10 1 -4 -7 -5 -1 -1 -4 -8 -6 -0 -0 -1 -1 -1 -2 -2
-3 -1 -0 -1 -3 -2 -6 -4 -0 -0 -0 -1 -1 -1 0 -0 0 1 -0 -5 -1 -1 -0 -4 -6 -0 -2 -1 -0 -9 -4 -12 -5 -4 -1 -3 -2 -7 -2 -2 -1 -4 -3 -5 -3
-2 -2 -0 -3 -2 0 -4 -4 -0 0 -0 0 -0 0 -0 -0 -1 -1 -5 -5 0 1 -0 -2 -10 -8 -4 -4 -4 -6 -3 -3 -6 -3 -4 -2 -12 -5 -3 -2 -1 0 0 -1 -4
-3 -4 2 -1 -2 1 -1 -3 0 -1 -0 -0 -0 0 -1 -0 0 1 -2 -4 -1 -5 -2 -4 -5 -1 -8 -3 -2 -2 -3 -3 3 -3 -0 -1 -13 -0 -1 -0 2 -1 1 -1 1
-1 -1 -1 0 -2 -1 -2 -1 0 1 -1 0 -0 -1 -0 -1 -3 1 -0 -2 0 -1 -7 -7 -5 -3 -12 -15 -7 -1 -1 -1 -1 -0 -4 2 -15 -0 0 -1 -2 -1 -2 -0 -2
-1 -4 1 1 1 -3 -0 -2 -1 0 -2 1 -1 3 2 1 -0 -3 -0 -1 2 -2 1 3 -1 -10 -12 -16 -6 -2 0 -0 -3 1 -4 -6 -5 -3 -2 -1 -3 -2 -2 -3 -1
-1 -3 -0 -3 -0 -0 0 1 -0 -1 1 0 -1 -0 -2 2 1 -1 -0 1 2 -6 2 -3 0 0 -1 -1 -0 -2 -1 -0 0 -4 -2 -7 -1 -3 -2 -1 -1 1 -2 -2 -3
-0 0 0 -0 -1 1 -1 -2 1 -4 1 -3 4 -3 1 -0 -8 -3 3 -0 -6 0 0 2 -4 1 -1 0 1 1 -0 0 0 0 0 -0 -4 -2 -0 1 -1 -1 -1 -1 -1
-1 -2 -2 -2 0 -2 -4 -3 -2 1 -7 4 3 2 2 -8 2 -3 2 3 -5 -4 -0 -0 -0 2 -3 -0 1 -0 -4 -1 -1 0 -5 -2 -7 0 -2 -1 -0 -1 0 0 -0
Height
1548 1547 1545 1544 1542 1540 1538 1537 1536 1535 1533 1533 1532 1530 1530 1530 1530 1530 1530 1531 1530 1530 1530 1530 1531 1531 1532 1533 1534 1535 1546 1550 1539 1537 1535 1534 1534 1535 1535 1535 1536 1537 1539 1540 1540
1550 1548 1546 1544 1543 1541 1539 1537 1536 1535 1534 1532 1532 1530 1530 1530 1530 1530 1531 1530 1530 1530 1531 1531 1532 1531 1532 1533 1534 1535 1548 1542 1535 1534 1535 1536 1536 1536 1537 1537 1536 1536 1538 1538 1538
1551 1549 1547 1545 1543 1541 1540 1538 1536 1535 1534 1533 1532 1531 1530 1530 1531 1530 1530 1530 1530 1530 1530 1531 1531 1533 1533 1532 1533 1534 1540 1534 1533 1534 1535 1536 1537 1537 1538 1538 1538 1539 1537 1536 1536
1552 1550 1548 1546 1544 1542 1540 1538 1536 1535 1534 1533 1532 1531 1530 1530 1535 1530 1530 1530 1530 1530 1530 1530 1531 1532 1532 1532 1531 1534 1530 1531 1533 1534 1535 1536 1536 1537 1538 1538 1538 1538 1538 1535 1535
1552 1550 1548 1547 1545 1542 1540 1538 1536 1534 1533 1532 1531 1531 1531 1530 1530 1529 1529 1530 1529 1529 1530 1529 1530 1531 1531 1530 1530 1530 1529 1529 1530 1531 1532 1533 1535 1537 1537 1537 1536 1536 1535 1534 1531
1552 1550 1548 1546 1544 1542 1539 1537 1535 1533 1532 1531 1530 1529 1530 1532 1529 1529 1529 1529 1529 1529 1530 1530 1530 1531 1530 1530 1531 1529 1529 1528 1527 1528 1529 1531 1533 1535 1537 1535 1534 1533 1533 1533 1531
1551 1549 1547 1545 1543 1541 1538 1536 1534 1532 1531 1529 1528 1528 1529 1530 1528 1528 1528 1528 1528 1528 1530 1530 1531 1531 1531 1530 1530 1528 1529 1526 1525 1524 1527 1529 1533 1538 1538 1534 1534 1533 1533 1533 1531
1551 1549 1547 1544 1542 1539 1537 1535 1533 1530 1529 1528 1527 1528 1527 1527 1527 1528 1528 1528 1527 1527 1528 1528 1530 1530 1531 1532 1531 1531 1531 1532 1525 1524 1529 1526 1533 1537 1535 1532 1533 1532 1530 1530 1530
1550 1547 1545 1543 1540 1538 1535 1533 1530 1529 1527 1526 1527 1526 1528 1528 1528 1527 1527 1528 1527 1527 1527 1527 1528 1530 1531 1534 1540 1536 1537 1535 1526 1529 1529 1529 1531 1533 1532 1532 1532 1531 1529 1529 1528
1548 1545 1543 1541 1538 1536 1533 1531 1529 1528 1527 1526 1526 1529 1528 1527 1527 1527 1527 1528 1527 1526 1527 1527 1527 1529 1531 1536 1534 1533 1537 1531 1530 1531 1531 1534 1532 1528 1532 1530 1534 1533 1530 1527 1524
1546 1543 1541 1539 1537 1534 1532 1530 1532 1530 1528 1526 1526 1526 1527 1526 1527 1525 1525 1526 1525 1524 1526 1525 1529 1531 1527 1528 1527 1530 1532 1535 1534 1533 1531 1532 1537 1534 1534 1535 1538 1538 1536 1534 1531
1544 1542 1539 1538 1535 1533 1532 1531 1534 1536 1529 1525 1525 1526 1526 1526 1526 1525 1526 1526 1524 1525 1525 1529 1529 1523 1523 1525 1526 1529 1532 1537 1535 1536 1533 1536 1528 1532 1533 1542 1543 1544 1543 1540 1536
1543 1541 1539 1537 1535 1535 1532 1533 1533 1532 1532 1527 1526 1527 1526 1527 1526 1526 1526 1526 1526 1526 1527 1529 1525 1524 1525 1527 1529 1530 1540 1535 1535 1538 1538 1538 1533 1534 1541 1541 1541 1539 1540 1537 1533
1543 1541 1539 1536 1537 1535 1534 1534 1533 1531 1536 1529 1527 1527 1526 1526 1528 1528 1528 1529 1528 1530 1530 1530 1526 1526 1528 1528 1530 1538 1534 1535 1537 1548 1553 1539 1546 1527 1537 1539 1541 1541 1539 1536 1531
1542 1540 1538 1535 1536 1536 1537 1534 1533 1533 1551 1531 1528 1527 1526 1529 1531 1530 1529 1528 1529 1531 1533 1529 1528 1528 1529 1528 1529 1531 1533 1536 1538 1559 1562 1546 1560 1531 1537 1536 1540 1542 1540 1539 1538
1542 1540 1537 1535 1535 1537 1535 1534 1535 1544 1550 1530 1528 1528 1529 1529 1530 1531 1531 1531 1532 1531 1532 1532 1530 1529 1528 1529 1530 1533 1536 1542 1547 1556 1587 1549 1540 1535 1550 1552 1546 1545 1543 1541 1536
1540 1538 1536 1535 1535 1535 1535 1536 1549 1555 1525 1531 1531 1531 1532 1531 1531 1532 1533 1535 1540 1541 1538 1534 1530 1528 1529 1531 1533 1537 1552 1584 1583 1595 1560 1537 1537 1546 1550 1548 1547 1545 1543 1540 1535
1539 1537 1535 1534 1534 1535 1536 1539 1551 1525 1529 1530 1531 1531 1532 1530 1530 1531 1533 1538 1539 1542 1547 1547 1544 1532 1530 1533 1534 1537 1550 1574 1580 1568 1547 1533 1553 1544 1547 1546 1546 1545 1543 1539 1535
1538 1536 1535 1535 1535 1535 1538 1554 1532 1532 1533 1532 1531 1532 1532 1530 1531 1532 1533 1537 1533 1536 1545 1555 1538 1532 1531 1531 1532 1538 1558 1547 1567 1556 1562 1538 1555 1549 1547 1547 1547 1544 1540 1535 1532
1536 1534 1534 1534 1535 1536 1538 1535 1533 1532 1531 1532 1532 1531 1529 1532 1534 1535 1532 1533 1532 1532 1532 1544 1551 1533 1532 1531 1533 1536 1537 1561 1572 1582 1579 1560 1577 1544 1549 1546 1543 1542 1540 1536 1532
1534 1533 1534 1535 1535 1536 1543 1539 1533 1532 1533 1535 1535 1534 1531 1532 1535 1535 1532 1529 1528 1531 1530 1538 1550 1540 1535 1547 1544 1544 1552 1550 1552 1554 1566 1576 1561 1549 1547 1546 1542 1539 1538 1536 1532
1533 1533 1534 1535 1538 1538 1542 1535 1534 1532 1532 1533 1533 1533 1532 1531 1531 1530 1529 1524 1523 1524 1533 1534 1549 1552 1541 1540 1541 1545 1546 1546 1542 1541 1550 1553 1541 1540 1541 1541 1540 1536 1534 1533 1529
1532 1532 1534 1533 1537 1538 1535 1533 1531 1530 1530 1530 1530 1529 1528 1530 1536 1528 1524 1521 1522 1522 1527 1530 1552 1565 1545 1549 1543 1546 1548 1542 1548 1551 1536 1541 1542 1541 1540 1539 1538 1535 1532 1529 1526
1533 1533 1531 1530 1530 1532 1535 1533 1531 1529 1527 1527 1525 1525 1526 1528 1527 1525 1523 1520 1520 1520 1520 1521 1543 1541 1538 1542 1541 1546 1544 1542 1539 1545 1563 1558 1547 1544 1541 1539 1535 1533 1531 1527 1523
1533 1532 1530 1531 1529 1530 1532 1532 1530 1529 1525 1524 1522 1522 1525 1524 1522 1522 1520 1518 1516 1516 1516 1521 1521 1532 1520 1521 1531 1529 1538 1541 1536 1544 1530 1539 1549 1545 1541 1538 1535 1533 1530 1526 1521
1532 1532 1530 1528 1528 1529 1529 1528 1525 1524 1525 1522 1521 1518 1519 1520 1519 1516 1516 1516 1514 1512 1513 1516 1515 1519 1515 1513 1516 1521 1523 1531 1534 1541 1546 1566 1552 1538 1537 1536 1534 1533 1529 1524 1519
1529 1529 1529 1527 1526 1529 1528 1523 1521 1521 1518 1517 1517 1517 1515 1511 1510 1509 1507 1506 1506 1508 1509 1514 1516 1515 1508 1512 1512 1524 1528 1530 1537 1542 1534 1541 1538 1538 1536 1534 1533 1531 1527 1523 1518